Time,TemperatureF,DewpointF,PressureIn,WindDirection,WindDirectionDegrees,WindSpeedMPH,WindSpeedGustMPH,Humidity,HourlyPrecipIn,Conditions,Clouds,dailyrainin,SoftwareType,DateUTC
2013-01-10 14:00:00,45.0,22.0,30.42,NW,316,11.0,15.0,40,-99.99,,,-99.99,,2013-01-10 19:00:00,
2013-01-10 14:23:00,45.0,22.0,30.42,NW,316,11.0,15.0,40,-99.99,,,-99.99,,2013-01-10 19:23:00,
2013-01-10 14:33:00,45.0,22.0,30.42,NW,316,11.0,15.0,40,-99.99,,,-99.99,,2013-01-10 19:33:00,
2013-01-10 14:43:00,45.0,22.0,30.42,NW,316,11.0,15.0,40,-99.99,,,-99.99,,2013-01-10 19:43:00,
2013-01-10 14:53:00,45.0,22.0,30.42,NW,316,11.0,15.0,40,-99.99,,,-99.99,,2013-01-10 19:53:00,
2013-01-10 15:00:00,46.0,23.0,30.45,NW,305,6.0,14.0,40,-99.99,,,-99.99,,2013-01-10 20:00:00,
2013-01-10 15:24:00,46.0,23.0,30.45,NW,305,6.0,14.0,40,-99.99,,,-99.99,,2013-01-10 20:24:00,
2013-01-10 15:33:00,46.0,23.0,30.45,NW,305,6.0,14.0,40,-99.99,,,-99.99,,2013-01-10 20:33:00,
2013-01-10 15:43:00,46.0,23.0,30.45,NW,305,6.0,14.0,40,-99.99,,,-99.99,,2013-01-10 20:43:00,
2013-01-10 15:53:00,46.0,23.0,30.45,NW,305,6.0,14.0,40,-99.99,,,-99.99,,2013-01-10 20:53:00,
2013-01-10 16:23:00,45.0,22.0,30.45,West,279,5.0,12.0,39,-99.99,,,-99.99,,2013-01-10 21:23:00,
2013-01-10 16:33:00,45.0,22.0,30.45,West,279,5.0,12.0,39,-99.99,,,-99.99,,2013-01-10 21:33:00,
2013-01-10 16:43:00,45.0,22.0,30.45,West,279,5.0,12.0,39,-99.99,,,-99.99,,2013-01-10 21:43:00,
2013-01-10 16:53:00,45.0,22.0,30.45,West,279,5.0,12.0,39,-99.99,,,-99.99,,2013-01-10 21:53:00,
2013-01-10 17:00:00,40.0,22.0,30.45,NW,313,4.0,9.0,48,-99.99,,,-99.99,,2013-01-10 22:00:00,
2013-01-10 17:27:00,40.0,22.0,30.45,NW,313,4.0,9.0,48,-99.99,,,-99.99,,2013-01-10 22:27:00,
2013-01-10 17:34:00,40.0,22.0,30.45,NW,313,4.0,9.0,48,-99.99,,,-99.99,,2013-01-10 22:34:00,
2013-01-10 17:44:00,40.0,22.0,30.45,NW,313,4.0,9.0,48,-99.99,,,-99.99,,2013-01-10 22:44:00,
2013-01-10 18:00:00,38.0,22.0,30.45,WSW,243,3.0,7.0,52,-99.99,,,-99.99,,2013-01-10 23:00:00,
2013-01-10 18:23:00,38.0,22.0,30.45,WSW,243,3.0,7.0,52,-99.99,,,-99.99,,2013-01-10 23:23:00,
2013-01-10 18:33:00,38.0,22.0,30.45,WSW,243,3.0,7.0,52,-99.99,,,-99.99,,2013-01-10 23:33:00,
2013-01-10 18:43:00,38.0,22.0,30.45,WSW,243,3.0,7.0,52,-99.99,,,-99.99,,2013-01-10 23:43:00,
2013-01-10 18:53:00,38.0,22.0,30.45,WSW,243,3.0,7.0,52,-99.99,,,-99.99,,2013-01-10 23:53:00,
2013-01-10 19:00:00,39.0,22.0,30.45,NE,51,3.0,6.0,50,-99.99,,,-99.99,,2013-01-11 00:00:00,
2013-01-10 19:23:00,39.0,22.0,30.45,NE,51,3.0,6.0,50,-99.99,,,-99.99,,2013-01-11 00:23:00,
2013-01-10 19:33:00,39.0,22.0,30.45,NE,51,3.0,6.0,50,-99.99,,,-99.99,,2013-01-11 00:33:00,
2013-01-10 19:43:00,39.0,22.0,30.45,NE,51,3.0,6.0,50,-99.99,,,-99.99,,2013-01-11 00:43:00,
2013-01-10 19:53:00,39.0,22.0,30.45,NE,51,3.0,6.0,50,-99.99,,,-99.99,,2013-01-11 00:53:00,
2013-01-10 20:00:00,38.0,22.0,30.45,NNW,342,2.0,8.0,52,-99.99,,,-99.99,,2013-01-11 01:00:00,
2013-01-10 20:24:00,38.0,22.0,30.45,NNW,342,2.0,8.0,52,-99.99,,,-99.99,,2013-01-11 01:24:00,
2013-01-10 20:34:00,38.0,22.0,30.45,NNW,342,2.0,8.0,52,-99.99,,,-99.99,,2013-01-11 01:34:00,
2013-01-10 20:43:00,38.0,22.0,30.45,NNW,342,2.0,8.0,52,-99.99,,,-99.99,,2013-01-11 01:43:00,
2013-01-10 20:53:00,38.0,22.0,30.45,NNW,342,2.0,8.0,52,-99.99,,,-99.99,,2013-01-11 01:53:00,
2013-01-10 21:00:00,38.0,23.0,30.45,North,11,4.0,9.0,55,-99.99,,,-99.99,,2013-01-11 02:00:00,
2013-01-10 21:24:00,38.0,23.0,30.45,North,11,4.0,9.0,55,-99.99,,,-99.99,,2013-01-11 02:24:00,
2013-01-10 21:33:00,38.0,23.0,30.45,North,11,4.0,9.0,55,-99.99,,,-99.99,,2013-01-11 02:33:00,
2013-01-10 21:44:00,38.0,23.0,30.45,North,11,4.0,9.0,55,-99.99,,,-99.99,,2013-01-11 02:44:00,
2013-01-10 21:54:00,38.0,23.0,30.45,North,11,4.0,9.0,55,-99.99,,,-99.99,,2013-01-11 02:54:00,
2013-01-10 22:00:00,37.0,23.0,30.45,NNE,32,5.0,7.0,57,-99.99,,,-99.99,,2013-01-11 03:00:00,
2013-01-10 22:23:00,37.0,23.0,30.45,NNE,32,5.0,7.0,57,-99.99,,,-99.99,,2013-01-11 03:23:00,
2013-01-10 22:33:00,37.0,23.0,30.45,NNE,32,5.0,7.0,57,-99.99,,,-99.99,,2013-01-11 03:33:00,
2013-01-10 22:43:00,37.0,23.0,30.45,NNE,32,5.0,7.0,57,-99.99,,,-99.99,,2013-01-11 03:43:00,
2013-01-10 22:53:00,37.0,23.0,30.45,NNE,32,5.0,7.0,57,-99.99,,,-99.99,,2013-01-11 03:53:00,
2013-01-10 23:00:00,37.0,23.0,30.47,North,3,2.0,7.0,57,-99.99,,,-99.99,,2013-01-11 04:00:00,
2013-01-10 23:23:00,37.0,23.0,30.47,North,3,2.0,7.0,57,-99.99,,,-99.99,,2013-01-11 04:23:00,
2013-01-10 23:33:00,37.0,23.0,30.47,North,3,2.0,7.0,57,-99.99,,,-99.99,,2013-01-11 04:33:00,
2013-01-10 23:43:00,37.0,23.0,30.47,North,3,2.0,7.0,57,-99.99,,,-99.99,,2013-01-11 04:43:00,
2013-01-10 23:53:00,37.0,23.0,30.47,North,3,2.0,7.0,57,-99.99,,,-99.99,,2013-01-11 04:53:00,